Weather History for Smyrna, TN

Change the Weather History Date:

Monday, November 18, 2013

  Actual Average Record
Temperature  
Mean Temperature 49 °F -  
Max Temperature 61 °F 56 °F 71 °F (1998)
Min Temperature 37 °F 41 °F 17 °F (2014)
Degree Days  
Heating Degree Days 16    
Moisture  
Dew Point 40 °F    
Average Humidity 73    
Maximum Humidity 100    
Minimum Humidity 35    
Precipitation  
Precipitation 0.00 in - - ()
Sea Level Pressure  
Sea Level Pressure 30.13 in    
Wind  
Wind Speed 7 mph (NNW)    
Max Wind Speed 18 mph    
Max Gust Speed 24 mph    
Visibility 8 miles    
Events      
Averages and records for this station are not official NWS values.
T = Trace of Precipitation, MM = Missing Value Source: NWS Daily Summary

Daily Weather History Graph

Daily Weather History Graph

Search for Another Location

Airport:

Trip Planner

Search our weather history database for the weather conditions in past years. The results will help you decide how hot, cold, wet, or windy it might be!

Date:

Astronomy

Nov. 18, 2013 Rise Set
Actual Time 6:25 AM CST 4:36 PM CST
Civil Twilight 5:58 AM CST 5:03 PM CST
Nautical Twilight 5:27 AM CST 5:35 PM CST
Astronomical Twilight 4:56 AM CST 6:05 PM CST
Moon 5:38 PM CST (11/18) 7:13 AM CST (11/18)
Length of Visible Light 11h 05m
Length of Day
10h 10m
Full, 99% of the Moon is Illuminated
Nov 18
Full
Nov 25
Last Quarter
Dec 2
New
Dec 9
First Quarter
Dec 17
Full

Hourly Weather History & Observations

Time (CST) Temp. Windchill Dew Point Humidity Pressure Visibility Wind Dir Wind Speed Gust Speed Precip Events Conditions
12:39 AM 53.6 °F - 53.6 °F 100% 29.96 in 1.5 mi North 5.8 mph - N/A   Clear
12:41 AM 53.6 °F - 53.6 °F 100% 29.96 in 0.8 mi NNW 5.8 mph - N/A   Clear
12:56 AM 52.0 °F - 52.0 °F 100% 29.99 in 0.8 mi NNW 8.1 mph - N/A   Clear
1:00 AM 53.6 °F - 53.6 °F 100% 29.97 in 1.2 mi NNW 11.5 mph - N/A   Clear
1:03 AM 53.6 °F - 53.6 °F 100% 29.97 in 2.5 mi NNW 12.7 mph - N/A   Clear
1:10 AM 55.4 °F - 48.2 °F 77% 29.98 in 10.0 mi NNW 11.5 mph - N/A   Clear
1:56 AM 52.9 °F - 43.9 °F 71% 30.02 in 10.0 mi NW 8.1 mph - N/A   Partly Cloudy
2:56 AM 45.9 °F 43.6 °F 43.9 °F 93% 30.04 in 10.0 mi NNW 4.6 mph - N/A   Clear
3:56 AM 43.9 °F - 43.9 °F 100% 30.06 in 10.0 mi Calm Calm - N/A   Clear
4:56 AM 41.9 °F - 41.9 °F 100% 30.07 in 10.0 mi Calm Calm - N/A   Clear
5:56 AM 39.9 °F - 39.9 °F 100% 30.08 in 10.0 mi Calm Calm - N/A   Clear
6:23 AM 37.4 °F - 37.4 °F 100% 30.06 in 1.8 mi Calm Calm - N/A   Clear
6:32 AM 37.4 °F 33.8 °F 37.4 °F 100% 30.07 in 4.0 mi NNW 4.6 mph - N/A   Clear
6:56 AM 41.9 °F 40.0 °F 41.0 °F 97% 30.10 in 10.0 mi NNW 3.5 mph - N/A   Clear
7:56 AM 50.9 °F - 43.0 °F 74% 30.13 in 10.0 mi North 5.8 mph - N/A   Clear
8:56 AM 52.9 °F - 43.0 °F 69% 30.17 in 10.0 mi North 9.2 mph - N/A   Clear
9:56 AM 55.9 °F - 41.9 °F 59% 30.18 in 10.0 mi NNW 8.1 mph - N/A   Clear
10:56 AM 59.0 °F - 41.0 °F 51% 30.18 in 10.0 mi North 8.1 mph - N/A   Clear
11:56 AM 59.9 °F - 37.9 °F 44% 30.17 in 10.0 mi NNW 13.8 mph - N/A   Clear
12:56 PM 61.9 °F - 37.9 °F 41% 30.16 in 10.0 mi North 9.2 mph 19.6 mph N/A   Clear
1:56 PM 61.9 °F - 36.9 °F 39% 30.16 in 10.0 mi NNW 12.7 mph - N/A   Partly Cloudy
2:56 PM 61.0 °F - 32.9 °F 35% 30.17 in 10.0 mi NNW 18.4 mph 24.2 mph N/A   Partly Cloudy
3:56 PM 57.9 °F - 34.0 °F 41% 30.19 in 10.0 mi NNW 11.5 mph - N/A   Clear
4:56 PM 52.0 °F - 34.9 °F 52% 30.20 in 10.0 mi NNW 8.1 mph - N/A   Clear
5:56 PM 50.9 °F - 34.9 °F 54% 30.23 in 10.0 mi North 11.5 mph - N/A   Clear
6:56 PM 48.9 °F - 32.9 °F 54% 30.24 in 10.0 mi North 8.1 mph - N/A   Clear
7:56 PM 45.9 °F 41.7 °F 34.0 °F 63% 30.26 in 10.0 mi North 8.1 mph - N/A   Clear
8:56 PM 45.0 °F 40.6 °F 32.0 °F 60% 30.27 in 10.0 mi North 8.1 mph - N/A   Clear
9:56 PM 43.9 °F 38.8 °F 32.0 °F 63% 30.28 in 10.0 mi North 9.2 mph - N/A   Clear
10:56 PM 41.9 °F 36.9 °F 31.1 °F 66% 30.29 in 10.0 mi North 8.1 mph - N/A   Clear
11:56 PM 41.9 °F 37.5 °F 31.1 °F 66% 30.29 in 10.0 mi North 6.9 mph - N/A   Clear